Storm Events Database

Event Details

Event Thunderstorm Wind
Magnitude 50 kts.
State VERMONT
County/Area ESSEX
WFO BTV
Report Source Park/Forest Service
NCDC Data Source CSV
Begin Date 2007-08-25 17:40:00.0 EST-5
Begin Location 0W MAIDSTONE
Begin Lat/Lon 44.67/-71.58
End Date 2007-08-25 17:40:00.0 EST-5
Deaths Direct/Indirect 0/0 (fatality details below, when available...)
Injuries Direct/Indirect 0/0
Property Damage 15.00K
Crop Damage 0.00K
Episode Narrative A very warm, humid and unstable airmass was located across Vermont during the afternoon of the 25th, with temperatures in the upper 80s to lower 90s and dewpoints around 70 degrees. A surface cold front was located across Ontario and Quebec, with a mid-atmospheric disturbance that moved across the North Country during the afternoon and early evening. This triggered numerous thunderstorms in New York, that intensified as they moved across Vermont. An unseasonably strong wind field aloft fueled the development of severe thunderstorms that produced widespread damaging winds and some large hail across central, southern and eastern Vermont. Some of the hardest hit communities included Barre (Washington county), Rutland and vicinity (Rutland county) and Woodstock (Windsor county).
Event Narrative Numerous trees down throughout Maidstone State Park.


     ‚Äč



All events for this episode:

Location County/Zone St. Date Time T.Z. Type Mag Dth Inj PrD CrD
Totals: 0 0 1.887M 0.00K
JEFFERSONVILLE LAMOILLE CO. VT 08/25/2007 15:16 EST-5 Hail 0.75 in. 0 0 0.00K 0.00K
JEFFERSONVILLE LAMOILLE CO. VT 08/25/2007 15:35 EST-5 Hail 0.75 in. 0 0 0.00K 0.00K
JEFFERSONVILLE LAMOILLE CO. VT 08/25/2007 15:45 EST-5 Hail 0.75 in. 0 0 0.00K 0.00K
WHITING ADDISON CO. VT 08/25/2007 15:45 EST-5 Thunderstorm Wind 50 kts. EG 0 0 2.00K 0.00K
JOHNSON LAMOILLE CO. VT 08/25/2007 16:02 EST-5 Hail 0.75 in. 0 0 0.00K 0.00K
CASTLETON RUTLAND CO. VT 08/25/2007 16:10 EST-5 Thunderstorm Wind 50 kts. EG 0 0 50.00K 0.00K
CASTLETON RUTLAND CO. VT 08/25/2007 16:10 EST-5 Thunderstorm Wind 50 kts. EG 0 0 25.00K 0.00K
RIPTON ADDISON CO. VT 08/25/2007 16:15 EST-5 Thunderstorm Wind 50 kts. EG 0 0 2.00K 0.00K
RUTLAND RUTLAND CO. VT 08/25/2007 16:20 EST-5 Thunderstorm Wind 60 kts. EG 0 0 600.00K 0.00K
RUTLAND ARPT RUTLAND CO. VT 08/25/2007 16:24 EST-5 Thunderstorm Wind 50 kts. MG 0 0 0.00K 0.00K
BOLTON CHITTENDEN CO. VT 08/25/2007 16:30 EST-5 Hail 0.75 in. 0 0 0.00K 0.00K
CHELSEA ORANGE CO. VT 08/25/2007 16:30 EST-5 Lightning 0 0 50.00K 0.00K
CHITTENDEN RUTLAND CO. VT 08/25/2007 16:30 EST-5 Thunderstorm Wind 55 kts. EG 0 0 400.00K 0.00K
GLOVER ORLEANS CO. VT 08/25/2007 16:30 EST-5 Thunderstorm Wind 50 kts. EG 0 0 5.00K 0.00K
BROOKFIELD ORANGE CO. VT 08/25/2007 16:35 EST-5 Thunderstorm Wind 55 kts. EG 0 0 100.00K 0.00K
ISLAND POND ESSEX CO. VT 08/25/2007 16:40 EST-5 Thunderstorm Wind 50 kts. EG 0 0 3.00K 0.00K
BETHEL WINDSOR CO. VT 08/25/2007 16:45 EST-5 Thunderstorm Wind 50 kts. EG 0 0 50.00K 0.00K
DANBY FOUR CORNERS RUTLAND CO. VT 08/25/2007 16:45 EST-5 Thunderstorm Wind 55 kts. EG 0 0 100.00K 0.00K
WATERBURY CENTER WASHINGTON CO. VT 08/25/2007 16:45 EST-5 Thunderstorm Wind 56 kts. MG 0 0 0.00K 0.00K
BERLIN WASHINGTON CO. VT 08/25/2007 16:50 EST-5 Thunderstorm Wind 50 kts. EG 0 0 25.00K 0.00K
WATERBURY CENTER WASHINGTON CO. VT 08/25/2007 16:50 EST-5 Hail 1.00 in. 0 0 0.00K 0.00K
HARDWICK CALEDONIA CO. VT 08/25/2007 16:55 EST-5 Lightning 0 0 25.00K 0.00K
BARRE WASHINGTON CO. VT 08/25/2007 17:00 EST-5 Thunderstorm Wind 61 kts. EG 0 0 0.00K 0.00K
BARRE WASHINGTON CO. VT 08/25/2007 17:00 EST-5 Thunderstorm Wind 61 kts. EG 0 0 100.00K 0.00K
CABOT WASHINGTON CO. VT 08/25/2007 17:00 EST-5 Thunderstorm Wind 50 kts. EG 0 0 10.00K 0.00K
EAST BURKE CALEDONIA CO. VT 08/25/2007 17:00 EST-5 Thunderstorm Wind 50 kts. EG 0 0 20.00K 0.00K
EAST HARDWICK CALEDONIA CO. VT 08/25/2007 17:00 EST-5 Thunderstorm Wind 50 kts. EG 0 0 50.00K 0.00K
NEWARK HOLLOW CALEDONIA CO. VT 08/25/2007 17:00 EST-5 Hail 1.50 in. 0 0 0.00K 0.00K
SOUTH WOODBURY WASHINGTON CO. VT 08/25/2007 17:00 EST-5 Thunderstorm Wind 50 kts. EG 0 0 5.00K 0.00K
STRAFFORD ORANGE CO. VT 08/25/2007 17:00 EST-5 Thunderstorm Wind 50 kts. EG 0 0 10.00K 0.00K
SHEFFIELD CALEDONIA CO. VT 08/25/2007 17:05 EST-5 Thunderstorm Wind 50 kts. EG 0 0 10.00K 0.00K
SUTTON CALEDONIA CO. VT 08/25/2007 17:05 EST-5 Thunderstorm Wind 55 kts. EG 0 0 50.00K 0.00K
WEST BURKE CALEDONIA CO. VT 08/25/2007 17:05 EST-5 Thunderstorm Wind 50 kts. EG 0 0 20.00K 0.00K
LYNDONVILLE CALEDONIA CO. VT 08/25/2007 17:15 EST-5 Thunderstorm Wind 50 kts. EG 0 0 25.00K 0.00K
NEWARK HOLLOW CALEDONIA CO. VT 08/25/2007 17:15 EST-5 Thunderstorm Wind 50 kts. EG 0 0 10.00K 0.00K
WHEELOCK CALEDONIA CO. VT 08/25/2007 17:15 EST-5 Thunderstorm Wind 50 kts. EG 0 0 20.00K 0.00K
WOODSTOCK WINDSOR CO. VT 08/25/2007 17:15 EST-5 Thunderstorm Wind 50 kts. EG 0 0 75.00K 0.00K
MAIDSTONE ESSEX CO. VT 08/25/2007 17:40 EST-5 Thunderstorm Wind 50 kts. EG 0 0 15.00K 0.00K
LUDLOW WINDSOR CO. VT 08/25/2007 20:15 EST-5 Thunderstorm Wind 50 kts. EG 0 0 10.00K 0.00K
CAVENDISH WINDSOR CO. VT 08/25/2007 20:20 EST-5 Thunderstorm Wind 50 kts. EG 0 0 20.00K 0.00K
Totals: 0 0 1.887M 0.00K